Thursday, November 23, 2017, 4:37 AM EST
Back to Local

KBHB, Bar Harbor, Hancock County-bar Harbor Airport

Location: Ellsworth, ME, United States Lat: 44.45
Local Time: 4:37 AM EST ( 9:37 GMT) Lon: -68.367
Time Zone: US/Eastern Elev: 82 ft

Show me the last for .
Show Decoded

2017-11-23 03:56 METAR KBHB 230856Z AUTO 31011G19KT 10SM CLR 00/M03 A2982 RMK AO2 SLP101 6////
                 T00001033 51025 FZRANO PNO $ =
2017-11-23 02:56 METAR KBHB 230756Z AUTO 32009G19KT 280V340 10SM CLR 01/M03 A2980 RMK AO2 SLP094
                 T00061033 FZRANO PNO $ =
2017-11-23 01:56 METAR KBHB 230656Z AUTO 31009G19KT 10SM CLR 01/M02 A2978 RMK AO2 SLP087
                 T00111017 FZRANO PNO $ =
2017-11-23 00:56 METAR KBHB 230556Z AUTO 32011G17KT 10SM SCT019 BKN055 OVC065 02/00 A2974 RMK AO2
                 SLP076 6//// T00220000 10061 20022 53015 FZRANO PNO $ =
2017-11-23 00:01 METAR KBHB 230501Z AUTO 32009G20KT 280V350 10SM SCT012 BKN044 OVC055 03/02 A2971
                 RMK AO2 PNO $ =
2017-11-22 23:56 METAR KBHB 230456Z AUTO 32011G20KT 280V350 10SM BKN012 OVC055 03/02 A2971 RMK
                 AO2 RAE25UPB12E16 SLP065 T00280017 PNO $ =
2017-11-22 23:37 METAR KBHB 230437Z AUTO 32006G16KT 10SM OVC010 03/02 A2970 RMK AO2 RAE25UPB12E16
                 PNO $ =
2017-11-22 23:25 METAR KBHB 230425Z AUTO 33009G21KT 10SM BKN009 OVC014 03/02 A2970 RMK AO2
                 RAE25UPB12E16 CIG 007V012 PNO $ =
2017-11-22 22:56 METAR KBHB 230356Z AUTO 33009G16KT 10SM -RA OVC011 03/02 A2970 RMK AO2 SLP060
                 T00280022 PNO $ =
2017-11-22 21:56 METAR KBHB 230256Z AUTO 34013G19KT 10SM -RA OVC009 03/02 A2970 RMK AO2 CIG
                 007V012 SLP062 6//// T00330022 56005 PNO $ =
2017-11-22 20:56 METAR KBHB 230156Z AUTO 34012G20KT 10SM -RA OVC009 04/03 A2971 RMK AO2 CIG
                 007V012 SLP065 T00390028 PNO $ =
2017-11-22 19:56 METAR KBHB 230056Z AUTO 35012G17KT 10SM -RA BKN007 OVC040 04/04 A2970 RMK AO2
                 CIG 006V011 SLP063 T00440039 PNO $ =
2017-11-22 19:31 METAR KBHB 230031Z AUTO 35012G18KT 10SM -RA BKN009 OVC026 06/04 A2970 RMK AO2
                 CIG 006V010 PNO $ =
2017-11-22 18:56 METAR KBHB 222356Z AUTO 36011G18KT 10SM -RA SCT009 OVC019 06/05 A2972 RMK AO2
                 SLP067 6//// T00610050 10100 20061 401060050 56021 PNO $ =
2017-11-22 17:56 METAR KBHB 222256Z AUTO 35003KT 8SM -RA BKN005 BKN009 OVC013 09/08 A2973 RMK AO2
                 SLP073 T00890083 PNO $ =
2017-11-22 17:20 METAR KBHB 222220Z AUTO 35003KT 9SM RA BKN005 OVC055 09/09 A2974 RMK AO2 PNO $ =
2017-11-22 16:56 METAR KBHB 222156Z AUTO 35003KT 8SM -RA FEW035 OVC060 09/09 A2975 RMK AO2 SLP077
                 T00890089 PNO $ =
2017-11-22 16:44 METAR KBHB 222144Z AUTO 03007KT 6SM RA BR FEW002 OVC060 09/09 A2974 RMK AO2 PNO
                 $ =
2017-11-22 16:09 METAR KBHB 222109Z AUTO 01003KT 2SM RA BR SCT002 BKN038 OVC060 09/09 A2977 RMK
                 AO2 VIS 1 1/4V3 PNO $ =
2017-11-22 15:56 METAR KBHB 222056Z AUTO 00000KT 1SM RA BR FEW006 SCT050 OVC060 09/09 A2978 RMK
                 AO2 SLP088 6//// T00890089 56032 RVRNO PNO $ =
2017-11-22 15:49 METAR KBHB 222049Z AUTO 00000KT 2SM -RA BR FEW006 BKN038 OVC060 09/09 A2979 RMK
                 AO2 PNO $ =
2017-11-22 15:46 METAR KBHB 222046Z AUTO 00000KT 1SM -RA BR FEW006 BKN050 OVC060 09/09 A2979 RMK
                 AO2 RVRNO PNO $ =
2017-11-22 15:43 METAR KBHB 222043Z AUTO 00000KT 1/2SM -RA FG FEW006 BKN050 OVC060 09/09 A2979
                 RMK AO2 RVRNO PNO $ =
2017-11-22 15:37 METAR KBHB 222037Z AUTO 01004KT 1/4SM -RA FG FEW008 BKN029 OVC060 09/09 A2978
                 RMK AO2 PRESFR RVRNO PNO $ =
2017-11-22 15:32 METAR KBHB 222032Z AUTO 01004KT 3/4SM -RA BR FEW004 BKN029 OVC065 09/09 A2979
                 RMK AO2 VIS 1/4V4 PRESFR RVRNO PNO $ =
2017-11-22 15:30 METAR KBHB 222030Z AUTO 02003KT 1 1/4SM -RA BR SCT004 BKN029 OVC060 09/09 A2979
                 RMK AO2 VIS 1/4V5 PNO $ =
2017-11-22 15:25 METAR KBHB 222025Z AUTO 00000KT 3SM -RA BR FEW004 BKN024 OVC029 09/09 A2980 RMK
                 AO2 PNO $ =
2017-11-22 14:56 METAR KBHB 221956Z AUTO 00000KT 4SM RA BR BKN004 BKN014 OVC055 09/09 A2981 RMK
                 AO2 CIG 002V008 SLP098 T00940094 PNO $ =
2017-11-22 14:26 METAR KBHB 221926Z AUTO 00000KT 3SM -RA BR BKN006 OVC060 09/09 A2981 RMK AO2 PNO
                 $ =
2017-11-22 13:56 METAR KBHB 221856Z AUTO 00000KT 5SM -RA BR OVC060 09/09 A2982 RMK AO2 SLP103
                 T00940089 PNO $ =
2017-11-22 12:56 METAR KBHB 221756Z AUTO 20006KT 6SM -RA BR FEW050 OVC060 10/09 A2987 RMK AO2
                 SLP120 6//// T01000094 10106 20061 58028 PNO $ =
2017-11-22 11:56 METAR KBHB 221656Z AUTO 19006KT 8SM -RA OVC060 11/09 A2991 RMK AO2 SLP132
                 T01060094 PNO $ =
2017-11-22 10:56 METAR KBHB 221556Z AUTO 20007KT 10SM -RA BKN070 OVC080 11/09 A2993 RMK AO2 RAB09
                 SLP141 T01060089 PNO $ =
2017-11-22 09:56 METAR KBHB 221456Z AUTO 18005KT 10SM OVC090 11/08 A2996 RMK AO2 SLP149 6////
                 T01060078 58015 PNO $ =
2017-11-22 08:56 METAR KBHB 221356Z AUTO 00000KT 10SM FEW095 09/07 A2998 RMK AO2 SLP156 T00940072
                 PNO $ =
2017-11-22 07:56 METAR KBHB 221256Z AUTO 19005KT 10SM CLR 07/06 A2999 RMK AO2 SLP160 T00720056
                 PNO $ =
2017-11-22 06:56 METAR KBHB 221156Z AUTO 20004KT 10SM CLR 06/04 A3000 RMK AO2 SLP164 6//// 7////
                 T00610044 10094 20050 51004 PNO $ =
2017-11-22 05:56 METAR KBHB 221056Z AUTO 20003KT 10SM CLR 06/05 A3000 RMK AO2 SLP162 T00610050
                 PNO $ =
2017-11-22 04:56 METAR KBHB 220956Z AUTO 21003KT 10SM CLR 07/05 A3000 RMK AO2 SLP165 T00720050
                 PNO $ =

Support USWX by starting your Amazon purchase here.